Location: Le Rocchette
(44.3500°N, 7.8333°E)
Time: 20:36:32
(UTC+00:00)

FENGYUN 3A - Pass Details

Date: 17 November 2019
Orbit: 824 x 836 km, 98.4° (Epoch: 05 December)

Event Time Altitude Azimuth Distance (km) Brightness Sun altitude
Rises 05:28:50 0° 9° (N) 3,391 6.8 -10.5°
Reaches altitude 10° 05:31:15 10° 5° (N) 2,451 6.0 -10.0°
Maximum altitude 05:36:32 55° 289° (WNW) 993 3.8 -9.1°
Drops below altitude 10° 05:41:46 10° 213° (SSW) 2,427 6.0 -8.3°
Sets 05:44:09 0° 209° (SSW) 3,354 6.7 -7.8°
